Grants-Milan, NM

6:51 PM MST on January 18, 2018 (GMT -0700)
Grants-Milan Municipal

Weather History for KGNT - October, 2011

Change the Weather History Date:

Saturday, October 22, 2011

  Actual Average Record
Temperature  
Mean Temperature 49 °F -  
Max Temperature 71 °F 64 °F 80 °F (2003)
Min Temperature 28 °F 31 °F 16 °F (1958)
Degree Days  
Heating Degree Days 16    
Moisture  
Dew Point 19 °F    
Average Humidity 36    
Maximum Humidity 64    
Minimum Humidity 13    
Precipitation  
Precipitation 0.46 in - - ()
Sea Level Pressure  
Sea Level Pressure 30.17 in    
Wind  
Wind Speed 8 mph (NNW)    
Max Wind Speed 17 mph    
Max Gust Speed 23 mph    
Averages and records for this station are not official NWS values.
T = Trace of Precipitation, MM = Missing Value Source: NWS Daily Summary

Daily Weather History Graph

Daily Weather History Graph

Search for Another Location

Airport or City:

Trip Planner

Search our weather history database for the weather conditions in past years. The results will help you decide how hot, cold, wet, or windy it might be!

Date:

Astronomy

Oct. 22, 2011 Rise Set
Actual Time 7:23 AM MDT 6:28 PM MDT
Civil Twilight 6:57 AM MDT 6:53 PM MDT
Nautical Twilight 6:28 AM MDT 7:23 PM MDT
Astronomical Twilight 5:58 AM MDT 7:52 PM MDT
Moon 2:35 AM MDT (10/22) 3:38 PM MDT (10/22)
Length of Visible Light 11h 56m
Length of Day
11h 04m
Waning Crescent, 23% of the Moon is Illuminated
Oct 22
Waning Crescent
Oct 26
New
Nov 2
First Quarter
Nov 10
Full
Nov 18
Last Quarter

Hourly Weather History & Observations

Time (MDT) Temp. Windchill Dew Point Humidity Pressure Visibility Wind Dir Wind Speed Gust Speed Precip Events Conditions
12:53 AM 39.9 °F 35.1 °F 18.0 °F 41% 30.15 in - WNW 6.9 mph - N/A   Unknown
1:53 AM 37.9 °F 34.4 °F 18.0 °F 45% 30.15 in - WNW 4.6 mph - N/A   Unknown
2:53 AM 33.1 °F 26.1 °F 18.0 °F 54% 30.17 in - NW 8.1 mph - N/A   Unknown
3:53 AM 32.0 °F 24.8 °F 18.0 °F 56% 30.17 in - NW 8.1 mph - N/A   Unknown
4:53 AM 32.0 °F 24.8 °F 18.0 °F 56% 30.17 in - NW 8.1 mph - 0.01 in   Unknown
5:53 AM 33.1 °F 26.9 °F 19.0 °F 56% 30.19 in - WNW 6.9 mph - N/A   Unknown
6:53 AM 28.9 °F 21.9 °F 18.0 °F 64% 30.25 in - NW 6.9 mph - N/A   Unknown
7:53 AM 32.0 °F 25.6 °F 19.0 °F 59% 30.25 in - NW 6.9 mph - N/A   Unknown
8:53 AM 37.9 °F 33.5 °F 19.9 °F 48% 30.25 in - NNW 5.8 mph - N/A   Unknown
9:53 AM 48.9 °F - 21.0 °F 33% 30.22 in - NW 5.8 mph - N/A   Unknown
10:53 AM 57.0 °F - 19.9 °F 24% 30.19 in - North 4.6 mph - 0.02 in   Unknown
11:53 AM 64.9 °F - 19.9 °F 18% 30.17 in - North 8.1 mph - N/A   Unknown
12:53 PM 68.0 °F - 18.0 °F 15% 30.14 in - NNW 11.5 mph 20.7 mph 0.03 in   Unknown
1:53 PM 69.1 °F - 19.0 °F 15% 30.11 in - NNW 17.3 mph 23.0 mph 0.08 in   Unknown
2:53 PM 70.0 °F - 17.1 °F 13% 30.12 in - North 16.1 mph 23.0 mph 0.02 in   Unknown
3:53 PM 70.0 °F - 16.0 °F 13% 30.12 in - North 16.1 mph 20.7 mph 0.18 in   Unknown
4:53 PM 70.0 °F - 19.0 °F 14% 30.10 in - North 9.2 mph - 0.04 in   Unknown
5:53 PM 68.0 °F - 18.0 °F 15% 30.10 in - North 12.7 mph - 0.04 in   Unknown
6:53 PM 57.0 °F - 19.9 °F 24% 30.18 in - NW 9.2 mph - 0.02 in   Unknown
7:53 PM 54.0 °F - 21.0 °F 28% 30.20 in - North 3.5 mph - N/A   Unknown
8:53 PM 48.9 °F - 21.0 °F 33% 30.21 in - North 4.6 mph - 0.01 in   Unknown
9:53 PM 44.1 °F - 21.0 °F 40% 30.20 in - Calm Calm - N/A   Unknown
10:53 PM 41.0 °F 38.0 °F 21.0 °F 45% 30.19 in - NNW 4.6 mph - 0.01 in   Unknown
11:53 PM 41.0 °F 38.0 °F 21.0 °F 45% 30.15 in - WNW 4.6 mph - N/A   Unknown